Lid_Strength_Index
0 2 0 2 7 8 12 10 8 9 9 5 4 6 7 6 8 11 1 0 0 -0 -1 -1 -1 -1 -1 -1 -1 -1 -2 -2 -1 -1 -1 -1 -1 -1 -1 -1 -1 -1 -1 -1 -1 -1 -1 -1 -1
3 1 1 4 9 13 14 8 10 8 6 4 4 5 6 7 4 3 2 0 -0 -0 -1 -1 -1 -1 -1 -1 -1 -1 -1 -1 -1 -1 -1 -1 -1 -1 -1 -1 -1 -1 -1 -1 -1 -1 -1 -1 -1
1 2 4 6 8 11 12 8 7 6 5 5 5 4 5 6 3 3 1 -0 -0 -0 -1 -1 -1 -1 -1 -1 -1 -1 -1 -1 -2 -2 -1 -1 -1 -1 -1 -1 -1 -1 -1 -1 -1 -1 -1 -1 -1
2 2 3 8 9 8 8 7 6 6 5 4 5 6 4 2 2 1 0 -0 0 0 -0 -1 -1 -1 -1 -1 -1 -1 -1 -1 -1 -2 -2 -1 -1 -2 -2 -1 -1 -1 -1 -1 -1 -1 -1 -1 -1
2 3 7 8 10 7 6 6 5 7 7 5 5 7 6 3 1 0 0 -0 1 0 -0 -1 -1 -1 -1 -1 -1 -1 -1 -1 -1 -2 -2 -2 -2 -2 -2 -1 -1 -1 -1 -1 -1 -1 -1 -1 -1
5 4 8 9 9 7 5 5 4 6 5 5 6 7 6 3 2 1 0 0 -1 0 -0 -1 -1 -1 -1 -1 -1 -1 -1 -1 -1 -2 -2 -2 -2 -2 -2 -2 -2 -2 -2 -2 -1 -1 -1 -1 -1
5 6 8 8 7 7 5 4 6 6 5 5 4 8 5 3 2 1 0 -0 -0 -0 -0 -1 -1 -1 -1 -1 -1 -1 -1 -1 -1 -1 -2 -2 -2 -2 -2 -2 -2 -2 -2 -2 -1 -1 -1 -1 -1
4 5 8 7 8 7 5 4 4 4 5 3 2 7 6 5 2 1 0 0 0 -0 -0 -0 -1 -1 -1 -1 -1 -1 -1 -1 -1 -1 -2 -1 -2 -2 -2 -2 -2 -2 -2 -2 -1 -1 -1 -1 -1
3 7 8 7 7 6 5 5 3 3 4 3 3 4 3 1 1 1 1 2 1 0 0 -0 -0 -0 -1 -1 -1 -1 -1 -1 -1 -1 -1 -1 -1 -1 -1 -2 -2 -2 -2 -2 -2 -1 -1 -1 -1
5 7 7 5 5 5 5 5 5 4 4 5 3 3 2 2 2 2 2 3 2 3 3 1 -0 -0 -1 -0 -1 -1 -1 -1 -1 -1 -1 -1 -1 -1 -1 -2 -2 -2 -2 -2 -2 -2 -1 -1 -1
4 6 5 5 5 4 5 5 4 5 6 4 5 3 2 2 2 3 3 4 2 2 3 4 0 -1 -0 -0 -1 -1 -1 -1 -1 -1 -1 -1 -1 -1 -1 -1 -1 -1 -1 -1 -1 -1 -1 2 2
6 5 5 5 5 5 5 4 4 4 5 3 3 2 2 2 2 2 3 4 2 2 2 2 1 -1 -0 -1 -1 -0 -0 -1 -1 -1 -1 -1 -0 -0 -1 -0 -1 -1 -0 -0 0 1 0 2 1
5 5 4 4 4 4 4 5 5 4 3 2 2 2 2 3 3 2 2 2 2 4 4 2 -0 -0 -0 -1 -0 -1 -1 -1 -1 -2 -2 -2 -1 -0 -1 -1 -1 -1 -1 -1 -0 1 0 1 1
4 5 5 4 4 4 5 5 4 4 3 3 3 3 2 2 2 2 2 2 2 1 1 0 0 -0 -1 0 -1 -1 -2 -2 -2 -2 -2 -2 -1 -1 -0 -0 -0 -0 -1 -1 -1 -0 0 -0 -0
4 6 5 5 4 5 4 6 6 4 3 3 3 3 2 3 2 2 2 2 1 1 1 0 -0 -0 -0 -1 -1 -1 -2 -2 -1 -1 -3 -2 -2 -2 -1 -0 -0 -1 -1 -1 -1 -0 -0 0 -0
6 6 8 6 5 5 5 8 5 4 4 4 3 3 3 3 2 2 1 1 1 1 1 0 -0 -0 -0 -0 -0 -1 -2 -2 -2 -2 -2 -2 -2 -3 -1 -0 -0 -1 -1 -1 -0 0 0 0 0
7 9 8 7 5 6 6 7 5 4 4 4 4 4 3 3 3 2 1 1 1 1 1 1 0 0 -0 -1 -1 -1 -2 -1 -2 -3 -2 -3 -2 -2 -2 -1 -1 -2 -0 -0 0 0 0 1 1
9 9 8 8 6 6 6 7 5 4 4 4 4 4 4 4 3 2 1 1 1 1 0 0 -0 -0 -1 -0 -1 -1 -1 -1 -2 -2 -2 -3 -2 -2 -2 -1 -1 -1 -0 0 0 1 0 1 1
7 8 8 7 5 6 7 6 6 5 4 5 4 4 4 4 2 2 1 1 1 1 1 0 1 0 0 0 1 1 1 0 -1 -1 -2 -2 -2 -2 -2 -1 -0 -1 0 0 -0 0 1 1 1
7 8 8 6 6 6 7 7 5 5 5 5 4 4 4 3 3 2 2 1 1 1 1 1 1 0 0 0 0 0 0 0 -0 -0 -1 -2 -2 -2 -1 -1 -0 -0 0 0 0 0 1 1 1
7 8 8 8 7 6 7 8 7 5 5 4 4 4 3 3 3 3 2 1 1 1 1 1 -0 -0 -0 -0 0 0 0 0 1 1 0 -0 -1 -1 -1 -1 -0 -0 -0 1 1 0 1 2 1
9 6 7 7 8 10 6 12 8 7 6 5 5 4 4 3 3 2 2 1 1 1 -0 -1 -1 -1 -1 -1 0 1 2 2 1 1 0 -0 -0 -0 -1 -1 -1 -0 -0 0 1 0 1 1 3
8 6 7 7 8 9 9 10 8 7 8 7 5 4 4 3 3 3 2 1 1 1 0 -1 -2 -1 -1 -1 -0 1 1 1 1 0 1 0 -0 -1 -1 -1 -0 0 0 0 0 1 1 1 2
5 7 7 7 8 12 9 10 10 9 7 6 5 4 4 3 3 2 2 1 1 1 1 0 0 -0 -1 -1 -1 0 1 1 1 1 1 1 0 0 -0 -1 -0 -0 -0 0 0 0 0 1 1
6 8 12 12 12 13 9 10 9 7 6 5 5 4 4 3 3 3 2 2 2 1 1 1 0 1 -0 -0 -0 -0 0 0 1 1 1 1 1 1 0 -0 -0 0 -0 -0 -0 0 0 1 1
8 8 11 15 14 12 9 11 10 6 5 4 4 4 3 3 3 3 2 2 2 1 1 1 1 1 0 0 0 -0 -0 1 1 0 1 1 1 1 -0 -0 -0 -0 -0 -0 -0 0 0 0 1
8 9 8 10 10 12 10 10 7 6 6 5 5 4 4 4 3 3 2 2 2 1 1 1 1 1 1 0 0 0 0 0 0 -0 -0 0 0 0 0 -0 -0 -0 -0 -0 0 0 1 1 1
7 6 10 11 15 15 11 11 11 8 7 5 5 5 4 4 3 3 2 2 2 1 1 1 1 1 1 0 0 0 0 0 -0 -0 1 0 0 0 0 0 0 0 -0 -0 0 1 0 1 1
8 8 8 9 10 14 15 12 7 7 6 6 5 4 4 4 3 3 2 2 1 1 1 1 1 1 1 1 0 0 1 0 0 0 0 0 -0 0 1 0 0 0 0 0 0 1 1 1 1
7 8 8 11 12 11 12 12 6 5 5 5 5 4 4 3 3 3 3 2 2 2 1 1 1 1 1 1 1 2 1 1 2 2 2 2 2 2 2 2 2 2 2 2 2 1 1 1 1